一网星座-0573星 (ONEWEB-0573)

导读 | 星芒AI

ONEWEB-0573 是 OneWeb 卫星通信公司发射的低轨通信卫星之一,属于其全球宽带互联网星座计划。该卫星运行在约 1200 公里的近地轨道,旨在为全球用户提供高速、低延迟的互联网服务,尤其关注偏远和农村地区。OneWeb 通过部署大量此类卫星,构建覆盖全球的通信网络,支持航空、航海及地面用户的连接需求。ONEWEB-0573 的成功发射和运行,进一步增强了 OneWeb 的网络覆盖与服务能力。

基本信息
目录编号:
55152
目录名称:
ONEWEB-0573
国际标识:
2023-004N
轨道中心:
EARTH
卫星名称:
一网星座-0573星
卫星全名:
一网星座-0573星 (ONEWEB-0573)
卫星状态:
在轨 (已飞行1024 天)
发射日期:
2023-01-10 UTC
国别 :
英国 (GB)
星等 :
--
轨道信息
数据来源 国际轨道数据
星历时间: 2025-10-30T00:15:28+0800
15小时前
查看轨道信息
半长轴: 7567.879km
偏心率: 0.0002411
轨道倾角: 87.921°
近地点辐角 84.164°
升交点赤经 21.279°
平近点角 275.977°
近地点: 1187.919km
远地点: 1191.569km
周期: 109.200分钟
每日圈数: 13.186863
详细信息
平衡模式:
三轴稳定
覆盖范围:
全球
运营商:
一网卫星公司
运营商所在国:
英国
制造商(研发单位):
一网卫星公司
制造商所在国:
英国
使用方式:
暂无
卫星简介
OneWeb卫星网络由648颗重约125公斤的微型卫星组成,运行在1200公里的轨道上。 每颗卫星都能够提供至少每秒8千兆位的吞吐量,以使用其高吞吐量的Ku频段有效载荷为家庭和移动平台提供互联网接入。该卫星仍在工作。
2D轨道图
3D轨道图
轨道高度分析图
轨道倾角分析图
轨道综合分析图
查看轨道综合分析图